Simultaneous Nadir Overpasses (SNOs) Predictions

Prediction of SNOs between NOAA-15 and METOP-C Satellite Orbit:

Table of predicted SNOs for the next 14.0 days since TLE Epoch: 5/25/2024
Index Date (NOAA-15) Time (NOAA-15) Lat,Lon (NOAA-15) SZA (NOAA-15 ) Date (METOP-C) Time (METOP-C) Lat,Lon (METOP-C) SZA (METOP-C ) Distance(km) Time Diff (sec)
1 06/04/2024 02:28:21 -81.04, 1.36 119.36 06/04/2024 02:27:06 -81.04, 1.21 119.41 2.56 75
2 06/04/2024 03:18:47 81.04, 168.74 60.64 06/04/2024 03:17:46 81.05, 168.88 60.63 2.48 61
3 06/04/2024 04:09:21 -81.05, -23.94 119.37 06/04/2024 04:08:27 -81.05, -23.90 119.39 0.76 54
4 06/04/2024 04:59:47 81.05, 143.44 60.63 06/04/2024 04:59:08 81.05, 143.40 60.61 0.84 39
5 06/04/2024 05:50:21 -81.05, -49.24 119.38 06/04/2024 05:49:49 -81.04, -49.38 119.42 2.51 32
6 06/04/2024 06:40:47 81.05, 118.14 60.62 06/04/2024 06:40:29 81.06, 118.28 60.63 2.52 18
7 06/04/2024 07:31:21 -81.05, -74.54 119.40 06/04/2024 07:31:10 -81.05, -74.49 119.39 0.85 11
8 06/04/2024 08:21:47 81.05, 92.84 60.60 06/04/2024 08:21:51 81.05, 92.80 60.60 0.76 4
9 06/04/2024 09:12:21 -81.05, -99.84 119.41 06/04/2024 09:12:32 -81.05, -99.97 119.42 2.46 11
10 06/04/2024 10:02:47 81.05, 67.54 60.59 06/04/2024 10:03:12 81.06, 67.69 60.62 2.59 25
11 06/04/2024 10:53:21 -81.06,-125.14 119.42 06/04/2024 10:53:53 -81.06,-125.08 119.40 0.97 32
12 06/04/2024 11:43:47 81.06, 42.24 60.58 06/04/2024 11:44:34 81.05, 42.20 60.60 0.74 47
13 06/04/2024 12:34:21 -81.06,-150.44 119.43 06/04/2024 12:35:15 -81.05,-150.57 119.43 2.42 54
14 06/04/2024 13:24:47 81.06, 16.94 60.57 06/04/2024 13:25:55 81.06, 17.09 60.62 2.67 68



Historial Predications of SNOs between NOAA-15 and METOP-C
